Simultaneous Nadir Overpasses (SNOs) Predictions

Prediction of SNOs between AURA and NPP Satellite Orbit:

Table of predicted SNOs for the next 14.0 days since TLE Epoch: 8/3/2012
Index Date (AURA) Time (AURA) AURA Lat,Lon Date (NPP) Time (NPP) NPP Lat,Lon Distance(km) Time Diff (sec)
1 08/04/2012 04:30:49 79.73, 10.52 08/04/2012 04:30:19 79.73, 10.51 0.29 30
2 08/04/2012 05:20:09 -79.95, 179.88 08/04/2012 05:20:56 -79.95, 179.91 0.60 47
3 08/06/2012 20:47:16 79.78, 126.81 08/06/2012 20:47:12 79.77, 126.66 3.13 4
4 08/06/2012 21:36:38 -79.97, -64.09 08/06/2012 21:37:51 -79.96, -64.22 2.74 73
5 08/09/2012 12:14:23 -79.64, 74.04 08/09/2012 12:13:27 -79.63, 73.92 2.63 56
6 08/09/2012 13:03:44 79.82,-117.02 08/09/2012 13:04:06 79.81,-117.18 3.14 22
7 08/12/2012 04:30:49 -79.74,-169.35 08/12/2012 04:30:19 -79.74,-169.35 0.05 30
8 08/12/2012 05:20:09 79.95, -0.12 08/12/2012 05:20:57 79.95, -0.12 0.28 48
9 08/14/2012 20:47:16 -79.79, -53.12 08/14/2012 20:47:13 -79.79, -53.16 0.80 3
10 08/14/2012 21:35:48 81.32, 131.85 08/14/2012 21:37:01 81.07, 132.63 30.75 73
11 08/17/2012 12:14:18 79.70,-105.59 08/17/2012 12:13:25 79.70,-105.50 2.12 53




NCC Satellite Simultaneous Nadir Overpasses (SNOs) Prediction Service
